| time (UTC) | temp C | wind direction | speed KPH | gust KPH | rain 1hr cm | rain 24hr cm | rain mn cm | humidity % | barometer mb |
| 20260505040012 | 6 | 264 | 0.0 | 0.0 | 0.00 | 0.00 | 0.00 | 54 | 1005.8 |
| 20260505034506 | 6 | 272 | 0.0 | 0.0 | 0.00 | 0.00 | 0.00 | 54 | 1005.8 |
| 20260505033006 | 6 | 245 | 0.0 | 0.0 | 0.00 | 0.00 | 0.00 | 55 | 1005.6 |
| 20260505031504 | 6 | 253 | 0.0 | 0.0 | 0.00 | 0.00 | 0.00 | 54 | 1005.5 |
| 20260505030003 | 6 | 257 | 0.0 | 0.0 | 0.00 | 0.00 | 0.00 | 53 | 1005.6 |
| 20260505024559 | 6 | 265 | 0.0 | 0.0 | 0.00 | 0.00 | 0.00 | 50 | 1005.2 |
| 20260505023101 | 7 | 269 | 0.0 | 0.0 | 0.00 | 0.00 | 0.00 | 49 | 1005.0 |
| 20260505021554 | 7 | 268 | 0.0 | 0.0 | 0.00 | 0.00 | 0.00 | 49 | 1005.0 |
| 20260505020049 | 7 | 247 | 0.0 | 0.0 | 0.00 | 0.00 | 0.00 | 48 | 1004.7 |
| 20260505014518 | 7 | 271 | 0.0 | 0.0 | 0.00 | 0.00 | 0.00 | 46 | 1004.6 |
| 20260505013020 | 7 | 292 | 0.0 | 0.0 | 0.00 | 0.00 | 0.00 | 45 | 1004.4 |
| 20260505011509 | 8 | 307 | 0.0 | 0.0 | 0.00 | 0.00 | 0.00 | 43 | 1004.3 |
| 20260505010006 | 8 | 298 | 0.0 | 0.0 | 0.00 | 0.00 | 0.00 | 44 | 1004.1 |
| 20260505004504 | 8 | 263 | 0.0 | 0.0 | 0.00 | 0.00 | 0.00 | 44 | 1003.9 |
| 20260505003001 | 9 | 285 | 0.0 | 0.0 | 0.00 | 0.00 | 0.00 | 43 | 1003.7 |
| 20260505001535 | 9 | 300 | 0.0 | 0.0 | 0.00 | 0.00 | 0.00 | 43 | 1003.5 |
| 20260505000034 | 10 | 280 | 0.0 | 0.0 | 0.00 | 0.00 | 0.00 | 43 | 1003.3 |
| 20260504234617 | 10 | 307 | 0.0 | 0.0 | 0.00 | 0.00 | 0.00 | 41 | 1003.0 |
| 20260504233051 | 10 | 351 | 0.0 | 0.0 | 0.00 | 0.00 | 0.00 | 41 | 1002.6 |
| 20260504231527 | 10 | 295 | 0.0 | 0.0 | 0.00 | 0.00 | 0.00 | 40 | 1002.6 |
| 20260504230019 | 11 | 279 | 0.0 | 0.0 | 0.00 | 0.00 | 0.00 | 40 | 1002.4 |
| 20260504224517 | 11 | 297 | 0.0 | 0.0 | 0.00 | 0.00 | 0.00 | 40 | 1002.5 |
| 20260504223012 | 11 | 288 | 0.0 | 0.0 | 0.00 | 0.00 | 0.00 | 41 | 1002.1 |
| 20260504221509 | 11 | 360 | 0.0 | 0.0 | 0.00 | 0.00 | 0.00 | 42 | 1001.8 |
| 20260504220016 | 11 | 281 | 0.0 | 0.0 | 0.00 | 0.00 | 0.00 | 42 | 1001.4 |
| 20260504214503 | 11 | 279 | 0.0 | 0.0 | 0.00 | 0.00 | 0.00 | 42 | 1001.2 |
| 20260504213004 | 12 | 286 | 0.0 | 0.0 | 0.00 | 0.00 | 0.00 | 41 | 1000.9 |
| 20260504211600 | 12 | 297 | 0.0 | 0.0 | 0.00 | 0.00 | 0.00 | 40 | 1000.8 |
| 20260504210110 | 12 | 313 | 0.0 | 0.0 | 0.00 | 0.00 | 0.00 | 41 | 1000.6 |
| 20260504204602 | 12 | 302 | 0.0 | 0.0 | 0.00 | 0.00 | 0.00 | 41 | 1000.5 |
| 20260504203054 | 12 | 272 | 0.0 | 0.0 | 0.00 | 0.00 | 0.00 | 42 | 1000.4 |
| 20260504201554 | 13 | 338 | 0.0 | 0.0 | 0.00 | 0.00 | 0.00 | 41 | 1000.3 |
| 20260504200057 | 13 | 274 | 0.0 | 0.0 | 0.00 | 0.00 | 0.00 | 41 | 1000.1 |
| 20260504194536 | 13 | 272 | 0.0 | 0.0 | 0.00 | 0.00 | 0.00 | 40 | 1000.1 |
| 20260504193022 | 13 | 280 | 0.0 | 0.0 | 0.00 | 0.00 | 0.00 | 42 | 1000.0 |
| 20260504191519 | 13 | 330 | 0.0 | 0.0 | 0.00 | 0.00 | 0.00 | 43 | 999.6 |
| 20260504190020 | 13 | 282 | 0.0 | 0.0 | 0.00 | 0.00 | 0.00 | 41 | 999.5 |
| 20260504184518 | 13 | 250 | 0.0 | 0.0 | 0.00 | 0.00 | 0.00 | 42 | 999.4 |
| 20260504183017 | 13 | 300 | 0.0 | 0.0 | 0.00 | 0.00 | 0.00 | 42 | 999.1 |
| 20260504181516 | 13 | 269 | 0.0 | 0.0 | 0.00 | 0.00 | 0.00 | 41 | 998.8 |
| 20260504180018 | 13 | 266 | 0.0 | 0.0 | 0.00 | 0.00 | 0.00 | 40 | 998.6 |
| 20260504174514 | 14 | 269 | 0.0 | 0.0 | 0.00 | 0.00 | 0.00 | 39 | 998.4 |
| 20260504173018 | 14 | 288 | 0.0 | 0.0 | 0.00 | 0.00 | 0.00 | 38 | 998.3 |
| 20260504171614 | 14 | 232 | 0.0 | 0.0 | 0.00 | 0.00 | 0.00 | 40 | 998.2 |
| 20260504081516 | 12 | 205 | 0.0 | 0.0 | 0.00 | 0.00 | 0.00 | 47 | 996.8 |
| 20260504044532 | 13 | 203 | 0.0 | 0.0 | 0.00 | 0.00 | 0.00 | 43 | 1000.6 |
| 20260504043030 | 13 | 211 | 0.0 | 0.0 | 0.00 | 0.00 | 0.00 | 43 | 1000.9 |
| 20260504041527 | 13 | 232 | 0.0 | 0.0 | 0.00 | 0.00 | 0.00 | 42 | 1001.1 |
| 20260504040028 | 14 | 232 | 0.0 | 0.0 | 0.00 | 0.00 | 0.00 | 40 | 1001.5 |